Flight Track Log - Related Links

Times and Time Zones

All times are in EST time to prevent confusion due to time zone crossing. See the FSR411 flight status page for this flight to view local times or setup timezone preferences in your user account.

Time Position Orientation Groundspeed Altitude Reporting Facility
EST Latitude Longitude Course Direction KTS MPH feet Rate Location/Type
Mon 01:33:20 PM 40.9000 -74.0333 285° West 199 229 1,700  Level New York TRACON
Mon 01:34:14 PM 40.9167 -74.1167 285° West 220 253 1,800 1,300 Climbing New York TRACON
Mon 01:35:20 PM 40.9167 -74.2000 270° West 250 288 4,300 2,750 Climbing New York TRACON
Mon 01:36:14 PM 40.9333 -74.3000 282° West 263 303 7,300 3,088 Climbing New York TRACON
Mon 01:38:44 PM 41.1158 -74.3458 349° North 318 366 14,800 2,514 Climbing New York Center
Mon 01:39:44 PM 41.2322 -74.3492 359° North 373 429 16,100 1,550 Climbing New York Center
Mon 01:40:44 PM 41.3258 -74.3569 356° North 382 440 17,900 2,200 Climbing New York Center
Mon 01:41:44 PM 41.4325 -74.4097 340° North 376 433 20,500 2,500 Climbing New York Center
Mon 01:42:44 PM 41.4811 -74.5175 301° West 338 389 22,900 2,350 Climbing New York Center
Mon 01:43:44 PM 41.5194 -74.6222 296° West 338 389 25,200 1,900 Climbing New York Center
Mon 01:44:44 PM 41.5758 -74.7447 302° West 354 407 26,700 1,750 Climbing New York Center
Mon 01:45:44 PM 41.6172 -74.8719 294° West 376 433 28,700 1,750 Climbing New York Center
Mon 01:46:44 PM 41.6519 -75.0103 289° West 388 447 30,200 1,600 Climbing New York Center
Mon 01:47:44 PM 41.6864 -75.1511 288° West 394 453 31,900 1,650 Climbing New York Center
Mon 01:48:44 PM 41.7231 -75.2869 290° West 394 453 33,500 1,550 Climbing New York Center
Mon 01:49:44 PM 41.7553 -75.4228 288° West 394 453 35,000 1,500 Climbing New York Center
Mon 01:50:44 PM 41.7892 -75.5614 288° West 388 447 36,500 1,450 Climbing New York Center
Mon 01:51:44 PM 41.8233 -75.6919 289° West 388 447 37,900 1,350 Climbing New York Center
Mon 01:52:44 PM 41.8536 -75.8194 288° West 383 441 39,200 1,050 Climbing New York Center
Mon 01:53:44 PM 41.8817 -75.9414 287° West 369 425 40,000 400 Climbing New York Center
Mon 01:54:44 PM 41.9153 -76.0722 289° West 364 419 40,000  Level New York Center
Mon 01:55:44 PM 41.9469 -76.2028 288° West 371 427 40,000  Level New York Center
Mon 01:56:44 PM 41.9783 -76.3367 288° West 371 427 40,000  Level New York Center
Mon 01:57:44 PM 42.0131 -76.4819 288° West 371 427 40,000  Level New York Center
Mon 01:59:38 PM 42.0686 -76.7083 288° West 371 427 40,000  Level Cleveland Center
Mon 02:00:40 PM 42.1056 -76.8678 287° West 374 430 40,000  Level Cleveland Center
Mon 02:01:41 PM 42.1372 -76.9994 288° West 371 427 40,000  Level Cleveland Center
Mon 02:02:43 PM 42.1675 -77.1322 287° West 371 427 40,000  Level Cleveland Center
Mon 02:03:45 PM 42.1981 -77.2639 287° West 369 425 40,000  Level Cleveland Center
Mon 02:04:46 PM 42.2286 -77.3964 287° West 370 426 40,000  Level Cleveland Center
Mon 02:05:48 PM 42.2589 -77.5286 287° West 367 422 40,000  Level Cleveland Center
Mon 02:06:50 PM 42.2833 -77.6625 284° West 366 421 40,000  Level Cleveland Center
Mon 02:07:52 PM 42.3011 -77.7978 280° West 364 419 40,000  Level Cleveland Center
Mon 02:08:53 PM 42.3211 -77.9331 281° West 365 420 40,000  Level Cleveland Center
Mon 02:09:55 PM 42.3442 -78.0967 281° West 367 422 40,000  Level Cleveland Center
Mon 02:10:57 PM 42.3625 -78.2331 280° West 368 423 40,000  Level Cleveland Center
Mon 02:11:59 PM 42.3817 -78.3692 281° West 368 423 40,000  Level Cleveland Center
Mon 02:13:00 PM 42.4011 -78.5047 281° West 368 423 40,000  Level Cleveland Center
Mon 02:14:02 PM 42.4194 -78.6414 280° West 368 423 40,000  Level Cleveland Center
Mon 02:15:04 PM 42.4386 -78.7772 281° West 369 425 40,000  Level Cleveland Center
Mon 02:16:05 PM 42.4575 -78.9150 281° West 373 429 40,000  Level Cleveland Center
Mon 02:17:07 PM 42.4756 -79.0483 280° West 364 419 40,000  Level Cleveland Center
Mon 02:18:09 PM 42.4972 -79.2117 280° West 365 420 40,000  Level Cleveland Center
Mon 02:19:10 PM 42.5161 -79.3464 281° West 367 422 40,000  Level Cleveland Center
Mon 02:20:12 PM 42.5328 -79.4808 280° West 363 418 40,000 -48 Level Cleveland Center
Mon 02:21:14 PM 42.5519 -79.6164 281° West 368 423 39,900 -581 Descending Cleveland Center
Mon 02:22:16 PM 42.5672 -79.7489 279° West 359 413 38,800 -1,171 Descending Cleveland Center
Mon 02:23:17 PM 42.5856 -79.8881 280° West 375 432 37,500 -1,366 Descending Cleveland Center
Mon 02:24:19 PM 42.6022 -80.0408 278° West 378 435 36,000 -1,355 Descending Cleveland Center
Mon 02:25:21 PM 42.6197 -80.1800 280° West 374 430 34,700 -1,306 Descending Cleveland Center
Mon 02:26:23 PM 42.6372 -80.3214 280° West 378 435 33,300 -1,317 Descending Cleveland Center
Mon 02:27:24 PM 42.6553 -80.4675 280° West 389 448 32,000 -1,463 Descending Cleveland Center
Mon 02:28:26 PM 42.6489 -80.6444 267° West 401 461 30,300 -1,500 Descending Cleveland Center
Mon 02:29:28 PM 42.6386 -80.8033 265° West 418 481 28,900 -1,415 Descending Cleveland Center
Mon 02:30:29 PM 42.6272 -80.9569 264° West 409 471 27,400 -1,512 Descending Cleveland Center
Mon 02:31:31 PM 42.6169 -81.1103 265° West 406 467 25,800 -1,452 Descending Cleveland Center
Mon 02:32:33 PM 42.6064 -81.2600 265° West 398 458 24,400 -878 Descending Cleveland Center
Mon 02:33:34 PM 42.5964 -81.4078 265° West 392 451 24,000 -195 Descending Cleveland Center
Mon 02:34:36 PM 42.5847 -81.5536 264° West 388 447 24,000 -339 Level Cleveland Center
Mon 02:35:38 PM 42.5733 -81.7011 264° West 390 449 23,300 -1,403 Descending Cleveland Center
Mon 02:36:40 PM 42.5631 -81.8575 265° West 380 437 21,100 -2,000 Descending Cleveland Center
Mon 02:37:41 PM 42.5514 -81.9978 264° West 377 434 19,200 -1,756 Descending Cleveland Center
Mon 02:38:43 PM 42.5411 -82.1336 264° West 367 422 17,500 -1,784 Descending Cleveland Center
Mon 02:39:32 PM 42.5303 -82.2522 263° West 359 413 15,900 -1,742 Descending Cleveland Center
Mon 02:39:45 PM 42.5306 -82.2672 271° West 361 415 15,700 -2,000 Descending Cleveland Center
Mon 02:40:26 PM 42.5219 -82.3731 264° West 340 391 14,100 -1,935 Descending Cleveland Center
Mon 02:40:47 PM 42.5203 -82.3944 264° West 348 400 13,700 -1,770 Descending Cleveland Center
Mon 02:41:27 PM 42.5111 -82.5017 263° West 328 377 12,300 -1,574 Descending Cleveland Center
Mon 02:41:48 PM 42.5078 -82.5419 264° West 333 383 12,100 -436 Descending Cleveland Center
Mon 02:42:22 PM 42.4892 -82.6036 248° West 332 382 11,900 -871 Descending Cleveland Center
Mon 02:42:50 PM 42.4714 -82.6542 245° Southwest 333 383 11,200 -1,574 Descending Cleveland Center
Mon 02:43:23 PM 42.4500 -82.7117 243° Southwest 287 330 10,300 -1,452 Descending Cleveland Center
Mon 02:43:52 PM 42.4353 -82.7483 241° Southwest 298 343 9,700 -1,180 Descending Cleveland Center
Mon 02:44:24 PM 42.4161 -82.8031 245° Southwest 260 299 9,100 -968 Descending Cleveland Center
Mon 02:44:54 PM 42.4092 -82.8392 255° West 269 310 8,700 -1,279 Descending Cleveland Center
Mon 02:45:25 PM 42.4031 -82.8975 262° West 257 296 7,800 -1,475 Descending Cleveland Center
Mon 02:45:55 PM 42.4000 -82.9344 264° West 257 296 7,200 -1,075 Descending Cleveland Center
Mon 02:46:32 PM 42.3908 -83.0033 260° West 254 292 6,600 -871 Descending Cleveland Center
Mon 02:46:57 PM 42.3889 -83.0272 264° West 255 293 6,300 -655 Descending Cleveland Center
Mon 02:47:27 PM 42.3808 -83.0839 259° West 212 244 6,000 -581 Descending Cleveland Center
Mon 02:47:59 PM 42.3792 -83.1078 265° West 227 261 5,700 -1,180 Descending Cleveland Center
Mon 02:48:28 PM 42.3731 -83.1561 260° West 188 216 4,800 -1,161 Descending Cleveland Center
Mon 02:49:01 PM 42.3589 -83.1856 237° Southwest 189 217 4,500 -627 Descending Cleveland Center
Mon 02:49:35 PM 42.3433 -83.2169 236° Southwest 161 185 4,100 -871 Descending Cleveland Center
Mon 02:50:03 PM 42.3342 -83.2372 239° Southwest 171 197 3,600 -1,250 Descending Cleveland Center
Mon 02:50:23 PM 42.3214 -83.2564 228° Southwest 167 192 3,100 -871 Descending Cleveland Center
Mon 02:51:05 PM 42.2994 -83.2744 211° Southwest 169 194 2,700 -822 Descending Cleveland Center
Mon 02:51:36 PM 42.2725 -83.2947 209° Southwest 160 184 2,100 -984 Descending Cleveland Center
Mon 02:52:06 PM 42.2594 -83.3061 213° Southwest 169 194 1,700 -873 Descending Cleveland Center
Mon 02:52:31 PM 42.2414 -83.3186 207° Southwest 118 136 1,300 -677 Descending Cleveland Center
Mon 02:53:08 PM 42.2294 -83.3281 210° Southwest 138 159 1,000 -486 Descending Cleveland Center
Mon 02:55:00 PM 42.2124 -83.3534 236° Southwest  Level Estimated
Mon 03:02:00 PM 42.2124 -83.3534 236° Southwest  Level Estimated

Login

Don't have an account? Register now (free) for customized features, flight alerts, and more!